Year,Month,Day,Hour,Minute,Value (Times are PST for temperature in C)
2010,08,11,00,00,14.00
2010,08,11,00,01,13.90
2010,08,11,00,02,13.90
2010,08,11,00,03,13.90
2010,08,11,00,04,13.90
2010,08,11,00,05,13.90
2010,08,11,00,06,13.90
2010,08,11,00,07,13.90
2010,08,11,00,08,13.90
2010,08,11,00,09,13.90
2010,08,11,00,10,13.90
2010,08,11,00,11,13.90
2010,08,11,00,12,13.90
2010,08,11,00,13,13.90
2010,08,11,00,14,13.90
2010,08,11,00,15,13.90
2010,08,11,00,16,13.90
2010,08,11,00,17,13.90
2010,08,11,00,18,13.90
2010,08,11,00,19,13.90
2010,08,11,00,20,13.90
2010,08,11,00,21,13.90
2010,08,11,00,22,13.90
2010,08,11,00,23,13.90
2010,08,11,00,24,13.90
2010,08,11,00,25,13.80
2010,08,11,00,26,13.80
2010,08,11,00,27,13.80
2010,08,11,00,28,13.80
2010,08,11,00,29,13.80
2010,08,11,00,30,13.80
2010,08,11,00,31,13.80
2010,08,11,00,32,13.80
2010,08,11,00,33,13.80
2010,08,11,00,34,13.80
2010,08,11,00,35,13.80
2010,08,11,00,36,13.80
2010,08,11,00,37,13.80
2010,08,11,00,38,13.80
2010,08,11,00,39,13.80
2010,08,11,00,40,13.80
2010,08,11,00,41,13.80
2010,08,11,00,42,13.80
2010,08,11,00,43,13.80
2010,08,11,00,44,13.80
2010,08,11,00,45,13.80
2010,08,11,00,46,13.80
2010,08,11,00,47,13.80
2010,08,11,00,48,13.80
2010,08,11,00,49,13.80
2010,08,11,00,50,13.80
2010,08,11,00,51,13.80
2010,08,11,00,52,13.80
2010,08,11,00,53,13.80
2010,08,11,00,54,13.70
2010,08,11,00,55,13.70
2010,08,11,00,56,13.70
2010,08,11,00,57,13.70
2010,08,11,00,58,13.70
2010,08,11,00,59,13.70
2010,08,11,01,00,13.70
2010,08,11,01,01,13.70
2010,08,11,01,02,13.70
2010,08,11,01,03,13.70
2010,08,11,01,04,13.70
2010,08,11,01,05,13.70
2010,08,11,01,06,13.70
2010,08,11,01,07,13.70
2010,08,11,01,08,13.80
2010,08,11,01,09,13.80
2010,08,11,01,10,13.80
2010,08,11,01,11,13.80
2010,08,11,01,12,13.80
2010,08,11,01,13,13.80
2010,08,11,01,14,13.90
2010,08,11,01,15,13.90
2010,08,11,01,16,13.90
2010,08,11,01,17,13.90
2010,08,11,01,18,13.90
2010,08,11,01,19,13.90
2010,08,11,01,20,13.90
2010,08,11,01,21,13.90
2010,08,11,01,22,13.90
2010,08,11,01,23,13.90
2010,08,11,01,24,13.80
2010,08,11,01,25,13.80
2010,08,11,01,26,13.80
2010,08,11,01,27,13.80
2010,08,11,01,28,13.80
2010,08,11,01,29,13.70
2010,08,11,01,30,13.70
2010,08,11,01,31,13.80
2010,08,11,01,32,13.90
2010,08,11,01,33,14.10
2010,08,11,01,34,14.40
2010,08,11,01,35,14.70
2010,08,11,01,36,15.00
2010,08,11,01,37,15.40
2010,08,11,01,38,15.60
2010,08,11,01,39,15.90
2010,08,11,01,40,16.00
2010,08,11,01,41,16.20
2010,08,11,01,42,16.30
2010,08,11,01,43,16.30
2010,08,11,01,44,16.40
2010,08,11,01,45,16.40
2010,08,11,01,46,16.40
2010,08,11,01,47,16.40
2010,08,11,01,48,16.40
2010,08,11,01,49,16.40
2010,08,11,01,50,16.40
2010,08,11,01,51,16.40
2010,08,11,01,52,16.40
2010,08,11,01,53,16.40
2010,08,11,01,54,16.40
2010,08,11,01,55,16.40
2010,08,11,01,56,16.40
2010,08,11,01,57,16.40
2010,08,11,01,58,16.40
2010,08,11,01,59,16.30
2010,08,11,02,00,16.30
2010,08,11,02,01,16.30
2010,08,11,02,02,16.30
2010,08,11,02,03,16.30
2010,08,11,02,04,16.30
2010,08,11,02,05,16.30
2010,08,11,02,06,16.30
2010,08,11,02,07,16.30
2010,08,11,02,08,16.30
2010,08,11,02,09,16.30
2010,08,11,02,10,16.30
2010,08,11,02,11,16.30
2010,08,11,02,12,16.40
2010,08,11,02,13,16.40
2010,08,11,02,14,16.40
2010,08,11,02,15,16.30
2010,08,11,02,16,16.30
2010,08,11,02,17,16.30
2010,08,11,02,18,16.30
2010,08,11,02,19,16.30
2010,08,11,02,20,16.30
2010,08,11,02,21,16.30
2010,08,11,02,22,16.30
2010,08,11,02,23,16.30
2010,08,11,02,24,16.30
2010,08,11,02,25,16.30
2010,08,11,02,26,16.40
2010,08,11,02,27,16.40
2010,08,11,02,28,16.40
2010,08,11,02,29,16.40
2010,08,11,02,30,16.50
2010,08,11,02,31,16.50
2010,08,11,02,32,16.50
2010,08,11,02,33,16.50
2010,08,11,02,34,16.60
2010,08,11,02,35,16.60
2010,08,11,02,36,16.60
2010,08,11,02,37,16.60
2010,08,11,02,38,16.60
2010,08,11,02,39,16.70
2010,08,11,02,40,16.70
2010,08,11,02,41,16.70
2010,08,11,02,42,16.70
2010,08,11,02,43,16.70
2010,08,11,02,44,16.70
2010,08,11,02,45,16.70
2010,08,11,02,46,16.70
2010,08,11,02,47,16.70
2010,08,11,02,48,16.70
2010,08,11,02,49,16.70
2010,08,11,02,50,16.70
2010,08,11,02,51,16.70
2010,08,11,02,52,16.70
2010,08,11,02,53,16.70
2010,08,11,02,54,16.70
2010,08,11,02,55,16.70
2010,08,11,02,56,16.70
2010,08,11,02,57,16.70
2010,08,11,02,58,16.70
2010,08,11,02,59,16.70
2010,08,11,03,00,16.70
2010,08,11,03,01,16.70
2010,08,11,03,02,16.70
2010,08,11,03,06,16.70
2010,08,11,03,07,16.70
2010,08,11,03,08,16.70
2010,08,11,03,09,16.70
2010,08,11,03,10,16.70
2010,08,11,03,11,16.70
2010,08,11,03,12,16.70
2010,08,11,03,13,16.70
2010,08,11,03,14,16.70
2010,08,11,03,15,16.60
2010,08,11,03,16,16.60
2010,08,11,03,17,16.60
2010,08,11,03,18,16.60
2010,08,11,03,19,16.60
2010,08,11,03,20,16.60
2010,08,11,03,21,16.60
2010,08,11,03,22,16.60
2010,08,11,03,23,16.60
2010,08,11,03,24,16.60
2010,08,11,03,25,16.60
2010,08,11,03,26,16.60
2010,08,11,03,27,16.60
2010,08,11,03,28,16.60
2010,08,11,03,29,16.60
2010,08,11,03,30,16.60
2010,08,11,03,31,16.60
2010,08,11,03,32,16.60
2010,08,11,03,33,16.60
2010,08,11,03,34,16.60
2010,08,11,03,35,16.60
2010,08,11,03,36,16.60
2010,08,11,03,37,16.60
2010,08,11,03,38,16.60
2010,08,11,03,39,16.60
2010,08,11,03,40,16.60
2010,08,11,03,41,16.60
2010,08,11,03,42,16.50
2010,08,11,03,43,16.50
2010,08,11,03,44,16.50
2010,08,11,03,45,16.40
2010,08,11,03,46,16.40
2010,08,11,03,47,16.40
2010,08,11,03,48,16.40
2010,08,11,03,49,16.40
2010,08,11,03,50,16.40
2010,08,11,03,51,16.40
2010,08,11,03,52,16.40
2010,08,11,03,53,16.40
2010,08,11,03,54,16.40
2010,08,11,03,55,16.30
2010,08,11,03,56,16.30
2010,08,11,03,57,16.30
2010,08,11,03,58,16.30
2010,08,11,03,59,16.30
2010,08,11,04,00,16.30
2010,08,11,04,01,16.30
2010,08,11,04,02,16.30
2010,08,11,04,03,16.20
2010,08,11,04,04,16.20
2010,08,11,04,05,16.20
2010,08,11,04,06,16.20
2010,08,11,04,07,16.20
2010,08,11,04,08,16.20
2010,08,11,04,09,16.30
2010,08,11,04,10,16.30
2010,08,11,04,11,16.30
2010,08,11,04,12,16.30
2010,08,11,04,13,16.30
2010,08,11,04,14,16.20
2010,08,11,04,15,16.20
2010,08,11,04,16,16.20
2010,08,11,04,17,16.20
2010,08,11,04,18,16.20
2010,08,11,04,19,16.20
2010,08,11,04,20,16.20
2010,08,11,04,21,16.10
2010,08,11,04,22,16.10
2010,08,11,04,23,16.10
2010,08,11,04,24,16.10
2010,08,11,04,25,16.00
2010,08,11,04,26,16.00
2010,08,11,04,27,15.90
2010,08,11,04,28,15.90
2010,08,11,04,29,15.90
2010,08,11,04,30,15.90
2010,08,11,04,31,16.00
2010,08,11,04,32,15.90
2010,08,11,04,33,15.90
2010,08,11,04,34,15.90
2010,08,11,04,35,16.00
2010,08,11,04,36,16.00
2010,08,11,04,37,16.00
2010,08,11,04,38,16.00
2010,08,11,04,39,16.00
2010,08,11,04,40,16.00
2010,08,11,04,41,16.00
2010,08,11,04,42,16.00
2010,08,11,04,43,16.10
2010,08,11,04,44,16.10
2010,08,11,04,45,16.10
2010,08,11,04,46,16.10
2010,08,11,04,47,16.10
2010,08,11,04,48,16.10
2010,08,11,04,49,16.10
2010,08,11,04,50,16.10
2010,08,11,04,51,16.10
2010,08,11,04,52,16.10
2010,08,11,04,53,16.00
2010,08,11,04,54,16.10
2010,08,11,04,55,16.10
2010,08,11,04,56,16.10
2010,08,11,04,57,16.10
2010,08,11,04,58,16.00
2010,08,11,04,59,16.00
2010,08,11,05,00,16.00
2010,08,11,05,01,16.00
2010,08,11,05,02,16.00
2010,08,11,05,03,16.00
2010,08,11,05,04,15.90
2010,08,11,05,05,15.90
2010,08,11,05,06,15.90
2010,08,11,05,07,15.90
2010,08,11,05,08,15.80
2010,08,11,05,09,15.80
2010,08,11,05,10,15.80
2010,08,11,05,11,15.80
2010,08,11,05,12,15.70
2010,08,11,05,13,15.70
2010,08,11,05,14,15.70
2010,08,11,05,15,15.60
2010,08,11,05,16,15.60
2010,08,11,05,17,15.60
2010,08,11,05,18,15.60
2010,08,11,05,19,15.60
2010,08,11,05,20,15.60
2010,08,11,05,21,15.60
2010,08,11,05,22,15.60
2010,08,11,05,23,15.60
2010,08,11,05,24,15.70
2010,08,11,05,25,15.70
2010,08,11,05,26,15.70
2010,08,11,05,27,15.70
2010,08,11,05,28,15.70
2010,08,11,05,29,15.80
2010,08,11,05,30,15.70
2010,08,11,05,31,15.70
2010,08,11,05,32,15.70
2010,08,11,05,33,15.70
2010,08,11,05,34,15.70
2010,08,11,05,35,15.70
2010,08,11,05,36,15.70
2010,08,11,05,37,15.70
2010,08,11,05,38,15.60
2010,08,11,05,39,15.60
2010,08,11,05,40,15.60
2010,08,11,05,41,15.60
2010,08,11,05,42,15.50
2010,08,11,05,43,15.50
2010,08,11,05,44,15.50
2010,08,11,05,45,15.40
2010,08,11,05,46,15.40
2010,08,11,05,47,15.30
2010,08,11,05,48,15.30
2010,08,11,05,49,15.20
2010,08,11,05,50,15.10
2010,08,11,05,51,15.10
2010,08,11,05,52,15.00
2010,08,11,05,53,15.00
2010,08,11,05,54,15.00
2010,08,11,05,55,15.00
2010,08,11,05,56,15.00
2010,08,11,05,57,14.90
2010,08,11,05,58,14.80
2010,08,11,05,59,14.80
2010,08,11,06,00,14.70
2010,08,11,06,01,14.70
2010,08,11,06,02,14.60
2010,08,11,06,03,14.60
2010,08,11,06,04,14.50
2010,08,11,06,05,14.50
2010,08,11,06,06,14.40
2010,08,11,06,07,14.40
2010,08,11,06,08,14.40
2010,08,11,06,09,14.30
2010,08,11,06,10,14.30
2010,08,11,06,11,14.30
2010,08,11,06,12,14.20
2010,08,11,06,13,14.20
2010,08,11,06,14,14.20
2010,08,11,06,15,14.20
2010,08,11,06,16,14.20
2010,08,11,06,17,14.30
2010,08,11,06,18,14.30
2010,08,11,06,19,14.30
2010,08,11,06,20,14.30
2010,08,11,06,21,14.30
2010,08,11,06,22,14.30
2010,08,11,06,23,14.40
2010,08,11,06,24,14.40
2010,08,11,06,25,14.40
2010,08,11,06,26,14.40
2010,08,11,06,27,14.40
2010,08,11,06,28,14.40
2010,08,11,06,29,14.40
2010,08,11,06,30,14.50
2010,08,11,06,31,14.50
2010,08,11,06,32,14.60
2010,08,11,06,33,14.60
2010,08,11,06,34,14.60
2010,08,11,06,35,14.70
2010,08,11,06,36,14.70
2010,08,11,06,37,14.70
2010,08,11,06,38,14.70
2010,08,11,06,39,14.70
2010,08,11,06,40,14.70
2010,08,11,06,41,14.80
2010,08,11,06,42,14.70
2010,08,11,06,43,14.70
2010,08,11,06,44,14.70
2010,08,11,06,45,14.70
2010,08,11,06,46,14.70
2010,08,11,06,47,14.70
2010,08,11,06,48,14.60
2010,08,11,06,49,14.60
2010,08,11,06,50,14.60
2010,08,11,06,51,14.60
2010,08,11,06,52,14.60
2010,08,11,06,53,14.60
2010,08,11,06,54,14.60
2010,08,11,06,55,14.60
2010,08,11,06,56,14.60
2010,08,11,06,57,14.70
2010,08,11,06,58,14.70
2010,08,11,06,59,14.90
2010,08,11,07,00,15.00
2010,08,11,07,01,15.00
2010,08,11,07,02,15.10
2010,08,11,07,03,15.20
2010,08,11,07,04,15.30
2010,08,11,07,05,15.40
2010,08,11,07,06,15.40
2010,08,11,07,07,15.50
2010,08,11,07,08,15.60
2010,08,11,07,09,15.60
2010,08,11,07,10,15.60
2010,08,11,07,11,15.60
2010,08,11,07,12,15.60
2010,08,11,07,13,15.60
2010,08,11,07,14,15.60
2010,08,11,07,15,15.60
2010,08,11,07,16,15.70
2010,08,11,07,17,15.70
2010,08,11,07,18,15.70
2010,08,11,07,19,15.70
2010,08,11,07,20,15.70
2010,08,11,07,21,15.70
2010,08,11,07,22,15.70
2010,08,11,07,23,15.70
2010,08,11,07,24,15.80
2010,08,11,07,25,15.80
2010,08,11,07,26,15.80
2010,08,11,07,27,15.80
2010,08,11,07,28,15.80
2010,08,11,07,29,15.80
2010,08,11,07,30,15.80
2010,08,11,07,31,15.80
2010,08,11,07,32,15.80
2010,08,11,07,33,15.80
2010,08,11,07,34,15.80
2010,08,11,07,35,15.80
2010,08,11,07,36,15.80
2010,08,11,07,37,15.80
2010,08,11,07,38,15.80
2010,08,11,07,39,15.80
2010,08,11,07,40,15.80
2010,08,11,07,41,15.80
2010,08,11,07,42,15.80
2010,08,11,07,43,15.80
2010,08,11,07,44,15.80
2010,08,11,07,45,15.80
2010,08,11,07,46,15.80
2010,08,11,07,47,15.90
2010,08,11,07,48,15.90
2010,08,11,07,49,15.90
2010,08,11,07,50,15.90
2010,08,11,07,51,15.90
2010,08,11,07,52,15.90
2010,08,11,07,53,16.00
2010,08,11,07,54,16.00
2010,08,11,07,55,16.10
2010,08,11,07,56,16.10
2010,08,11,07,57,16.10
2010,08,11,07,58,16.10
2010,08,11,07,59,16.10
2010,08,11,08,00,16.20
2010,08,11,08,01,16.20
2010,08,11,08,02,16.20
2010,08,11,08,03,16.20
2010,08,11,08,04,16.20
2010,08,11,08,05,16.20
2010,08,11,08,06,16.20
2010,08,11,08,07,16.30
2010,08,11,08,08,16.30
2010,08,11,08,09,16.30
2010,08,11,08,10,16.40
2010,08,11,08,11,16.40
2010,08,11,08,12,16.40
2010,08,11,08,13,16.40
2010,08,11,08,14,16.40
2010,08,11,08,15,16.50
2010,08,11,08,16,16.50
2010,08,11,08,17,16.50
2010,08,11,08,18,16.50
2010,08,11,08,19,16.50
2010,08,11,08,20,16.50
2010,08,11,08,21,16.50
2010,08,11,08,22,16.50
2010,08,11,08,23,16.50
2010,08,11,08,24,16.50
2010,08,11,08,25,16.50
2010,08,11,08,26,16.50
2010,08,11,08,27,16.60
2010,08,11,08,28,16.60
2010,08,11,08,29,16.60
2010,08,11,08,30,16.60
2010,08,11,08,31,16.60
2010,08,11,08,32,16.60
2010,08,11,08,33,16.60
2010,08,11,08,34,16.60
2010,08,11,08,35,16.60
2010,08,11,08,36,16.70
2010,08,11,08,37,16.70
2010,08,11,08,38,16.70
2010,08,11,08,39,16.70
2010,08,11,08,40,16.70
2010,08,11,08,41,16.70
2010,08,11,08,42,16.70
2010,08,11,08,43,16.80
2010,08,11,08,44,16.80
2010,08,11,08,45,16.80
2010,08,11,08,46,16.80
2010,08,11,08,47,16.90
2010,08,11,08,48,16.90
2010,08,11,08,49,16.90
2010,08,11,08,50,17.00
2010,08,11,08,51,17.00
2010,08,11,08,52,17.00
2010,08,11,08,53,17.00
2010,08,11,08,54,17.00
2010,08,11,08,55,17.10
2010,08,11,08,56,17.10
2010,08,11,08,57,17.10
2010,08,11,08,58,17.10
2010,08,11,08,59,17.20
2010,08,11,09,00,17.20
2010,08,11,09,01,17.30
2010,08,11,09,02,17.40
2010,08,11,09,03,17.40
2010,08,11,09,04,17.40
2010,08,11,09,05,17.40
2010,08,11,09,06,17.40
2010,08,11,09,07,17.40
2010,08,11,09,08,17.40
2010,08,11,09,09,17.40
2010,08,11,09,10,17.40
2010,08,11,09,11,17.40
2010,08,11,09,12,17.50
2010,08,11,09,13,17.50
2010,08,11,09,14,17.60
2010,08,11,09,15,17.60
2010,08,11,09,16,17.70
2010,08,11,09,17,17.70
2010,08,11,09,18,17.70
2010,08,11,09,19,17.70
2010,08,11,09,20,17.70
2010,08,11,09,21,17.70
2010,08,11,09,22,17.70
2010,08,11,09,23,17.70
2010,08,11,09,24,17.70
2010,08,11,09,25,17.70
2010,08,11,09,26,17.70
2010,08,11,09,27,17.80
2010,08,11,09,28,17.90
2010,08,11,09,29,17.90
2010,08,11,09,30,18.00
2010,08,11,09,31,18.10
2010,08,11,09,32,18.10
2010,08,11,09,33,18.10
2010,08,11,09,34,18.10
2010,08,11,09,35,18.10
2010,08,11,09,36,18.10
2010,08,11,09,37,18.10
2010,08,11,09,38,18.10
2010,08,11,09,39,18.00
2010,08,11,09,40,18.00
2010,08,11,09,41,18.00
2010,08,11,09,42,18.00
2010,08,11,09,43,18.10
2010,08,11,09,44,18.10
2010,08,11,09,45,18.10
2010,08,11,09,46,18.20
2010,08,11,09,47,18.20
2010,08,11,09,48,18.20
2010,08,11,09,49,18.20
2010,08,11,09,50,18.20
2010,08,11,09,51,18.20
2010,08,11,09,52,18.10
2010,08,11,09,53,18.10
2010,08,11,09,54,18.10
2010,08,11,09,55,18.10
2010,08,11,09,56,18.10
2010,08,11,09,57,18.10
2010,08,11,09,58,18.20
2010,08,11,09,59,18.20
2010,08,11,10,00,18.20
2010,08,11,10,01,18.20
2010,08,11,10,02,18.20
2010,08,11,10,03,18.30
2010,08,11,10,04,18.30
2010,08,11,10,05,18.30
2010,08,11,10,06,18.40
2010,08,11,10,07,18.40
2010,08,11,10,08,18.40
2010,08,11,10,09,18.50
2010,08,11,10,10,18.50
2010,08,11,10,11,18.60
2010,08,11,10,12,18.60
2010,08,11,10,13,18.60
2010,08,11,10,14,18.50
2010,08,11,10,15,18.50
2010,08,11,10,16,18.50
2010,08,11,10,17,18.60
2010,08,11,10,18,18.60
2010,08,11,10,19,18.60
2010,08,11,10,20,18.60
2010,08,11,10,21,18.60
2010,08,11,10,22,18.70
2010,08,11,10,23,18.60
2010,08,11,10,24,18.60
2010,08,11,10,25,18.50
2010,08,11,10,26,18.40
2010,08,11,10,27,18.40
2010,08,11,10,28,18.30
2010,08,11,10,29,18.20
2010,08,11,10,30,18.20
2010,08,11,10,31,18.10
2010,08,11,10,32,18.10
2010,08,11,10,33,18.00
2010,08,11,10,34,18.00
2010,08,11,10,35,17.90
2010,08,11,10,36,17.90
2010,08,11,10,37,17.80
2010,08,11,10,38,17.90
2010,08,11,10,39,17.90
2010,08,11,10,40,18.00
2010,08,11,10,41,18.10
2010,08,11,10,42,18.20
2010,08,11,10,43,18.20
2010,08,11,10,44,18.20
2010,08,11,10,45,18.20
2010,08,11,10,46,18.20
2010,08,11,10,47,18.30
2010,08,11,10,48,18.30
2010,08,11,10,49,18.30
2010,08,11,10,50,18.40
2010,08,11,10,51,18.30
2010,08,11,10,52,18.20
2010,08,11,10,53,18.20
2010,08,11,10,54,18.20
2010,08,11,10,55,18.20
2010,08,11,10,56,18.20
2010,08,11,10,57,18.20
2010,08,11,10,58,18.20
2010,08,11,10,59,18.30
2010,08,11,11,00,18.40
2010,08,11,11,01,18.50
2010,08,11,11,02,18.60
2010,08,11,11,03,18.80
2010,08,11,11,04,18.90
2010,08,11,11,05,18.90
2010,08,11,11,06,18.90
2010,08,11,11,07,18.80
2010,08,11,11,08,18.80
2010,08,11,11,09,18.80
2010,08,11,11,10,18.80
2010,08,11,11,11,18.80
2010,08,11,11,12,18.80
2010,08,11,11,13,18.80
2010,08,11,11,14,18.80
2010,08,11,11,15,18.80
2010,08,11,11,16,18.70
2010,08,11,11,17,18.60
2010,08,11,11,18,18.50
2010,08,11,11,19,18.40
2010,08,11,11,20,18.20
2010,08,11,11,21,18.20
2010,08,11,11,22,18.20
2010,08,11,11,23,18.10
2010,08,11,11,24,18.10
2010,08,11,11,25,18.10
2010,08,11,11,26,18.00
2010,08,11,11,27,17.90
2010,08,11,11,28,18.00
2010,08,11,11,29,18.10
2010,08,11,11,30,18.20
2010,08,11,11,31,18.20
2010,08,11,11,32,18.30
2010,08,11,11,33,18.30
2010,08,11,11,34,18.30
2010,08,11,11,35,18.30
2010,08,11,11,36,18.40
2010,08,11,11,37,18.50
2010,08,11,11,38,18.50
2010,08,11,11,39,18.50
2010,08,11,11,40,18.40
2010,08,11,11,41,18.40
2010,08,11,11,42,18.50
2010,08,11,11,43,18.60
2010,08,11,11,44,18.70
2010,08,11,11,45,18.80
2010,08,11,11,46,18.80
2010,08,11,11,47,18.80
2010,08,11,11,48,18.60
2010,08,11,11,49,18.60
2010,08,11,11,50,18.50
2010,08,11,11,51,18.50
2010,08,11,11,52,18.40
2010,08,11,11,53,18.40
2010,08,11,11,54,18.30
2010,08,11,11,55,18.30
2010,08,11,11,56,18.30
2010,08,11,11,57,18.30
2010,08,11,11,58,18.40
2010,08,11,11,59,18.50
2010,08,11,12,00,18.50
2010,08,11,12,01,18.70
2010,08,11,12,02,18.80
2010,08,11,12,03,18.80
2010,08,11,12,04,19.00
2010,08,11,12,05,19.10
2010,08,11,12,06,19.20
2010,08,11,12,07,19.30
2010,08,11,12,08,19.30
2010,08,11,12,09,19.20
2010,08,11,12,10,19.10
2010,08,11,12,11,19.10
2010,08,11,12,12,19.10
2010,08,11,12,13,19.10
2010,08,11,12,14,19.10
2010,08,11,12,15,19.10
2010,08,11,12,16,19.20
2010,08,11,12,17,19.20
2010,08,11,12,18,19.20
2010,08,11,12,19,19.20
2010,08,11,12,20,19.20
2010,08,11,12,21,19.20
2010,08,11,12,22,19.30
2010,08,11,12,23,19.20
2010,08,11,12,24,19.10
2010,08,11,12,25,19.10
2010,08,11,12,26,19.00
2010,08,11,12,27,19.00
2010,08,11,12,28,18.90
2010,08,11,12,29,18.90
2010,08,11,12,30,18.90
2010,08,11,12,31,18.80
2010,08,11,12,32,18.90
2010,08,11,12,33,18.90
2010,08,11,12,34,19.00
2010,08,11,12,35,19.10
2010,08,11,12,36,19.20
2010,08,11,12,37,19.20
2010,08,11,12,38,19.20
2010,08,11,12,39,19.20
2010,08,11,12,40,19.30
2010,08,11,12,41,19.40
2010,08,11,12,42,19.40
2010,08,11,12,43,19.30
2010,08,11,12,44,19.30
2010,08,11,12,45,19.30
2010,08,11,12,46,19.30
2010,08,11,12,47,19.30
2010,08,11,12,48,19.30
2010,08,11,12,49,19.20
2010,08,11,12,50,19.20
2010,08,11,12,51,19.20
2010,08,11,12,52,19.20
2010,08,11,12,53,19.20
2010,08,11,12,54,19.30
2010,08,11,12,55,19.30
2010,08,11,12,56,19.30
2010,08,11,12,57,19.30
2010,08,11,12,58,19.30
2010,08,11,12,59,19.30
2010,08,11,13,00,19.40
2010,08,11,13,01,19.40
2010,08,11,13,02,19.30
2010,08,11,13,03,19.30
2010,08,11,13,04,19.20
2010,08,11,13,05,19.10
2010,08,11,13,06,19.10
2010,08,11,13,07,19.10
2010,08,11,13,08,19.20
2010,08,11,13,09,19.20
2010,08,11,13,10,19.20
2010,08,11,13,11,19.20
2010,08,11,13,12,19.20
2010,08,11,13,13,19.30
2010,08,11,13,14,19.30
2010,08,11,13,15,19.30
2010,08,11,13,16,19.30
2010,08,11,13,17,19.30
2010,08,11,13,18,19.30
2010,08,11,13,19,19.30
2010,08,11,13,20,19.30
2010,08,11,13,21,19.30
2010,08,11,13,22,19.40
2010,08,11,13,23,19.50
2010,08,11,13,24,19.50
2010,08,11,13,25,19.50
2010,08,11,13,26,19.50
2010,08,11,13,27,19.40
2010,08,11,13,28,19.30
2010,08,11,13,29,19.30
2010,08,11,13,30,19.20
2010,08,11,13,31,19.20
2010,08,11,13,32,19.10
2010,08,11,13,33,19.10
2010,08,11,13,34,19.10
2010,08,11,13,35,19.10
2010,08,11,13,36,19.10
2010,08,11,13,37,19.20
2010,08,11,13,38,19.30
2010,08,11,13,39,19.40
2010,08,11,13,40,19.30
2010,08,11,13,41,19.40
2010,08,11,13,42,19.40
2010,08,11,13,43,19.40
2010,08,11,13,44,19.50
2010,08,11,13,45,19.60
2010,08,11,13,46,19.60
2010,08,11,13,47,19.60
2010,08,11,13,48,19.70
2010,08,11,13,49,19.80
2010,08,11,13,50,19.80
2010,08,11,13,51,19.80
2010,08,11,13,52,19.80
2010,08,11,13,53,19.70
2010,08,11,13,54,19.70
2010,08,11,13,55,19.70
2010,08,11,13,56,19.70
2010,08,11,13,57,19.70
2010,08,11,13,58,19.90
2010,08,11,13,59,20.00
2010,08,11,14,00,20.10
2010,08,11,14,01,20.20
2010,08,11,14,02,20.20
2010,08,11,14,03,20.20
2010,08,11,14,04,20.20
2010,08,11,14,05,20.20
2010,08,11,14,06,20.20
2010,08,11,14,07,20.10
2010,08,11,14,08,20.10
2010,08,11,14,09,20.10
2010,08,11,14,10,20.20
2010,08,11,14,11,20.30
2010,08,11,14,12,20.30
2010,08,11,14,13,20.20
2010,08,11,14,14,20.20
2010,08,11,14,15,20.20
2010,08,11,14,16,20.20
2010,08,11,14,17,20.20
2010,08,11,14,18,20.20
2010,08,11,14,19,20.20
2010,08,11,14,20,20.00
2010,08,11,14,21,20.00
2010,08,11,14,22,19.90
2010,08,11,14,23,19.90
2010,08,11,14,24,19.90
2010,08,11,14,25,20.00
2010,08,11,14,26,20.10
2010,08,11,14,27,20.20
2010,08,11,14,28,20.30
2010,08,11,14,29,20.50
2010,08,11,14,30,20.60
2010,08,11,14,31,20.70
2010,08,11,14,32,20.80
2010,08,11,14,33,20.80
2010,08,11,14,34,20.80
2010,08,11,14,35,20.80
2010,08,11,14,36,20.80
2010,08,11,14,37,20.80
2010,08,11,14,38,20.80
2010,08,11,14,39,20.90
2010,08,11,14,40,20.90
2010,08,11,14,41,20.90
2010,08,11,14,42,20.90
2010,08,11,14,43,20.90
2010,08,11,14,44,20.90
2010,08,11,14,45,21.00
2010,08,11,14,46,21.00
2010,08,11,14,47,20.90
2010,08,11,14,48,21.00
2010,08,11,14,49,21.00
2010,08,11,14,50,20.90
2010,08,11,14,51,20.80
2010,08,11,14,52,20.70
2010,08,11,14,53,20.70
2010,08,11,14,54,20.70
2010,08,11,14,55,20.80
2010,08,11,14,56,20.80
2010,08,11,14,57,20.80
2010,08,11,14,58,20.90
2010,08,11,14,59,20.90
2010,08,11,15,00,20.90
2010,08,11,15,01,20.90
2010,08,11,15,02,20.90
2010,08,11,15,03,21.00
2010,08,11,15,04,21.00
2010,08,11,15,05,21.10
2010,08,11,15,06,21.00
2010,08,11,15,07,21.00
2010,08,11,15,08,20.90
2010,08,11,15,09,20.80
2010,08,11,15,10,20.80
2010,08,11,15,11,20.80
2010,08,11,15,12,20.80
2010,08,11,15,13,20.90
2010,08,11,15,14,21.00
2010,08,11,15,15,21.10
2010,08,11,15,16,21.30
2010,08,11,15,17,21.40
2010,08,11,15,18,21.60
2010,08,11,15,19,21.60
2010,08,11,15,20,21.50
2010,08,11,15,21,21.50
2010,08,11,15,22,21.40
2010,08,11,15,23,21.50
2010,08,11,15,24,21.50
2010,08,11,15,25,21.50
2010,08,11,15,26,21.40
2010,08,11,15,27,21.30
2010,08,11,15,28,21.30
2010,08,11,15,29,21.30
2010,08,11,15,30,21.30
2010,08,11,15,31,21.40
2010,08,11,15,32,21.50
2010,08,11,15,33,21.70
2010,08,11,15,34,21.80
2010,08,11,15,35,21.80
2010,08,11,15,36,21.80
2010,08,11,15,37,21.80
2010,08,11,15,38,21.80
2010,08,11,15,39,21.70
2010,08,11,15,40,21.70
2010,08,11,15,41,21.70
2010,08,11,15,42,21.80
2010,08,11,15,43,21.80
2010,08,11,15,44,21.90
2010,08,11,15,45,22.00
2010,08,11,15,46,22.00
2010,08,11,15,47,22.00
2010,08,11,15,48,21.90
2010,08,11,15,49,21.90
2010,08,11,15,50,21.80
2010,08,11,15,51,21.90
2010,08,11,15,52,21.90
2010,08,11,15,53,22.00
2010,08,11,15,54,22.00
2010,08,11,15,55,22.00
2010,08,11,15,56,21.90
2010,08,11,15,57,21.90
2010,08,11,15,58,21.80
2010,08,11,15,59,21.80
2010,08,11,16,00,21.80
2010,08,11,16,01,21.70
2010,08,11,16,02,21.70
2010,08,11,16,03,21.70
2010,08,11,16,04,21.70
2010,08,11,16,05,21.80
2010,08,11,16,06,21.80
2010,08,11,16,07,21.80
2010,08,11,16,08,21.80
2010,08,11,16,09,22.00
2010,08,11,16,10,22.10
2010,08,11,16,11,22.20
2010,08,11,16,12,22.30
2010,08,11,16,13,22.40
2010,08,11,16,14,22.40
2010,08,11,16,15,22.40
2010,08,11,16,16,22.40
2010,08,11,16,17,22.40
2010,08,11,16,18,22.40
2010,08,11,16,19,22.40
2010,08,11,16,20,22.30
2010,08,11,16,21,22.30
2010,08,11,16,22,22.30
2010,08,11,16,23,22.30
2010,08,11,16,24,22.30
2010,08,11,16,25,22.30
2010,08,11,16,26,22.30
2010,08,11,16,27,22.40
2010,08,11,16,28,22.40
2010,08,11,16,29,22.50
2010,08,11,16,30,22.40
2010,08,11,16,31,22.50
2010,08,11,16,32,22.60
2010,08,11,16,33,22.60
2010,08,11,16,34,22.60
2010,08,11,16,35,22.60
2010,08,11,16,36,22.60
2010,08,11,16,37,22.50
2010,08,11,16,38,22.40
2010,08,11,16,39,22.40
2010,08,11,16,40,22.40
2010,08,11,16,41,22.40
2010,08,11,16,42,22.40
2010,08,11,16,43,22.40
2010,08,11,16,44,22.40
2010,08,11,16,45,22.40
2010,08,11,16,46,22.40
2010,08,11,16,47,22.40
2010,08,11,16,48,22.30
2010,08,11,16,49,22.20
2010,08,11,16,50,22.20
2010,08,11,16,51,22.20
2010,08,11,16,52,22.20
2010,08,11,16,53,22.10
2010,08,11,16,54,22.00
2010,08,11,16,55,22.00
2010,08,11,16,56,22.00
2010,08,11,16,57,22.10
2010,08,11,16,58,22.10
2010,08,11,16,59,22.20
2010,08,11,17,00,22.30
2010,08,11,17,01,22.30
2010,08,11,17,02,22.20
2010,08,11,17,03,22.30
2010,08,11,17,04,22.40
2010,08,11,17,05,22.30
2010,08,11,17,06,22.30
2010,08,11,17,07,22.30
2010,08,11,17,08,22.40
2010,08,11,17,09,22.50
2010,08,11,17,10,22.60
2010,08,11,17,11,22.60
2010,08,11,17,12,22.60
2010,08,11,17,13,22.70
2010,08,11,17,14,22.80
2010,08,11,17,15,22.80
2010,08,11,17,16,22.80
2010,08,11,17,17,22.80
2010,08,11,17,18,22.80
2010,08,11,17,19,22.80
2010,08,11,17,20,22.80
2010,08,11,17,21,22.80
2010,08,11,17,22,22.80